Jordan, MT

6:47 AM MDT on April 23, 2018 (GMT -0600)
Jordan

Weather History for KJDN - November, 2013

Change the Weather History Date:

Wednesday, November 13, 2013

  Actual Average Record
Temperature  
Mean Temperature 39 °F 31 °F  
Max Temperature 50 °F 45 °F 74 °F (1934)
Min Temperature 27 °F 18 °F -29 °F (1955)
Degree Days  
Heating Degree Days 26 34  
Month to date heating degree days 77 400  
Since 1 July heating degree days 923 1373  
Cooling Degree Days 0 0  
Month to date cooling degree days 0 0  
Year to date cooling degree days 520 421  
Moisture  
Dew Point 32 °F    
Average Humidity 62    
Maximum Humidity 92    
Minimum Humidity 31    
Precipitation  
Precipitation 0.00 in 0.01 in 0.20 in (1909)
Month to date precipitation 0.00 0.23  
Year to date precipitation 15.98 12.25  
Snow  
Snow 0.00 in - - ()
Month to date snowfall 0.0  
Since 1 July snowfall 0.0  
Since 1 September snowfall 0.0  
Snow Depth 0.00 in    
Sea Level Pressure  
Sea Level Pressure 30.07 in    
Wind  
Wind Speed 15 mph (West)    
Max Wind Speed 30 mph    
Max Gust Speed 39 mph    
T = Trace of Precipitation, MM = Missing Value Source: NWS Daily Summary

Daily Weather History Graph

Daily Weather History Graph

Search for Another Location

Airport or City:

Astronomy

Nov. 13, 2013 Rise Set
Actual Time 7:09 AM MST 4:33 PM MST
Civil Twilight 6:36 AM MST 5:07 PM MST
Nautical Twilight 5:59 AM MST 5:44 PM MST
Astronomical Twilight 5:23 AM MST 6:20 PM MST
Moon 2:36 PM MST (11/13) 2:50 AM MST (11/13)
Length of Visible Light 10h 30m
Length of Day
9h 24m
Waxing Gibbous, 85% of the Moon is Illuminated
Nov 13
Waxing Gibbous
Nov 17
Full
Nov 25
Last Quarter
Dec 2
New
Dec 9
First Quarter

Hourly Weather History & Observations

Time (MST) Temp. Windchill Dew Point Humidity Pressure Visibility Wind Dir Wind Speed Gust Speed Precip Events Conditions
12:48 AM 41.0 °F 37.1 °F 32.0 °F 70% 30.12 in - WNW 5.8 mph - N/A   Unknown
1:48 AM 41.0 °F 35.2 °F 32.0 °F 70% 30.11 in - West 9.2 mph - N/A   Unknown
2:48 AM 42.1 °F 36.1 °F 32.0 °F 67% 30.10 in - West 10.4 mph - N/A   Unknown
3:48 AM 43.0 °F 39.5 °F 33.1 °F 68% 30.11 in - West 5.8 mph - N/A   Unknown
4:48 AM 45.0 °F 39.3 °F 32.0 °F 60% 30.11 in - West 11.5 mph - N/A   Unknown
5:48 AM 45.0 °F 40.1 °F 32.0 °F 60% 30.13 in - WNW 9.2 mph - N/A   Unknown
6:48 AM 42.8 °F 38.6 °F 33.8 °F 70% 30.07 in - West 6.9 mph - N/A   Unknown
7:48 AM 39.9 °F 35.8 °F 33.1 °F 77% 30.14 in - WNW 5.8 mph - N/A   Unknown
8:48 AM 41.0 °F 35.8 °F 33.1 °F 73% 30.14 in - West 8.1 mph - N/A   Unknown
9:48 AM 50.0 °F - 35.1 °F 57% 30.11 in - West 5.8 mph - N/A   Unknown
10:48 AM 54.0 °F - 37.9 °F 55% 30.09 in - WSW 8.1 mph - N/A   Unknown
11:48 AM 57.9 °F - 37.0 °F 46% 30.05 in - West 10.4 mph - N/A   Unknown
12:48 PM 59.0 °F - 35.1 °F 41% 30.02 in - WNW 12.7 mph 21.9 mph N/A   Unknown
1:48 PM 57.9 °F - 35.1 °F 42% 30.00 in - WNW 17.3 mph 25.3 mph N/A   Unknown
2:48 PM 57.0 °F - 33.1 °F 40% 30.00 in - West 17.3 mph 28.8 mph N/A   Unknown
3:48 PM 54.0 °F - 30.9 °F 41% 29.99 in - WNW 23.0 mph 34.5 mph N/A   Unknown
4:48 PM 48.9 °F - 32.0 °F 52% 30.01 in - WNW 10.4 mph - N/A   Unknown
5:48 PM 45.0 °F 40.6 °F 30.9 °F 58% 30.03 in - WNW 8.1 mph - N/A   Unknown
6:48 PM 41.0 °F 37.1 °F 30.0 °F 65% 30.04 in - West 5.8 mph - N/A   Unknown
7:48 PM 42.1 °F 36.6 °F 28.9 °F 60% 30.05 in - West 9.2 mph - N/A   Unknown
8:48 PM 42.1 °F 37.1 °F 30.0 °F 62% 30.06 in - WNW 8.1 mph - N/A   Unknown
9:48 PM 44.1 °F 39.0 °F 30.0 °F 58% 30.04 in - West 9.2 mph - N/A   Unknown
10:48 PM 42.1 °F 34.5 °F 30.0 °F 62% 30.03 in - West 15.0 mph 20.7 mph N/A   Unknown
11:48 PM 41.0 °F 33.9 °F 28.9 °F 62% 30.04 in - West 12.7 mph - N/A   Unknown